Weather History for Pamplona, Spain

Change the Weather History Date:

Sunday, October 9, 2011

  Actual Average Record
Temperature  
Mean Temperature 60 °F -  
Max Temperature 66 °F 60 °F 82 °F (1997)
Min Temperature 53 °F 46 °F 48 °F (1998)
Degree Days  
Heating Degree Days 6    
Growing Degree Days 10 (Base 50)    
Moisture  
Dew Point 50 °F    
Average Humidity 73    
Maximum Humidity 94    
Minimum Humidity 52    
Precipitation  
Precipitation 0.00 in - - ()
Sea Level Pressure  
Sea Level Pressure 30.35 in    
Wind  
Wind Speed 11 mph ()    
Max Wind Speed 22 mph    
Max Gust Speed 26 mph    
Visibility 6.1 miles    
Events      
Averages and records for this station are not official NWS values.
T = Trace of Precipitation, MM = Missing Value Source: Averaged Metar Reports

Daily Weather History Graph

Daily Weather History Graph

Search for Another Location

Airport:

Trip Planner

Search our weather history database for the weather conditions in past years. The results will help you decide how hot, cold, wet, or windy it might be!

Date:

Astronomy

Oct. 09, 2011 Rise Set
Actual Time 8:12 AM CEST 7:34 PM CEST
Civil Twilight 7:44 AM CEST 8:03 PM CEST
Nautical Twilight 7:11 AM CEST 8:35 PM CEST
Astronomical Twilight 6:38 AM CEST 9:08 PM CEST
Moon 6:07 PM CEST (10/9) 5:40 AM CEST (10/9)
Length of Visible Light 12h 19m
Length of Day
11h 22m
Waxing Gibbous, 94% of the Moon is Illuminated
Oct 9
Waxing Gibbous
Oct 12
Full
Oct 20
Last Quarter
Oct 26
New
Nov 2
First Quarter

Hourly Weather History & Observations

Time (CEST) Temp. Dew Point Humidity Pressure Visibility Wind Dir Wind Speed Gust Speed Precip Events Conditions
12:00 AM 55.4 °F 48.2 °F 77% 30.36 in 6.2 mi North 13.8 mph - N/A   Mostly Cloudy
12:30 AM 53.6 °F 48.2 °F 82% 30.36 in 6.2 mi North 11.5 mph - N/A   Mostly Cloudy
1:00 AM 53.6 °F 50.0 °F 88% 30.36 in 6.2 mi Variable 2.3 mph - N/A   Mostly Cloudy
5:30 AM 53.6 °F 50.0 °F 88% 30.33 in 6.2 mi NNW 9.2 mph - N/A   Mostly Cloudy
6:00 AM 53.6 °F 50.0 °F 88% 30.33 in 6.2 mi North 11.5 mph - N/A   Mostly Cloudy
6:30 AM 53.6 °F 50.0 °F 88% 30.33 in 6.2 mi NNW 11.5 mph - N/A   Mostly Cloudy
7:00 AM 53.6 °F 51.8 °F 94% 30.33 in 6.2 mi NNW 9.2 mph - N/A   Mostly Cloudy
7:30 AM 53.6 °F 51.8 °F 94% 30.33 in 6.2 mi NW 9.2 mph - N/A   Mostly Cloudy
8:00 AM 53.6 °F 51.8 °F 94% 30.33 in 5.6 mi NW 6.9 mph - N/A   Mostly Cloudy
8:30 AM 53.6 °F 51.8 °F 94% 30.33 in 5.6 mi NNW 8.1 mph - N/A   Mostly Cloudy
9:00 AM 55.4 °F 50.0 °F 82% 30.33 in 5.6 mi North 9.2 mph - N/A   Mostly Cloudy
9:30 AM 55.4 °F 51.8 °F 88% 30.33 in 5.6 mi NNW 10.4 mph - N/A   Scattered Clouds
10:00 AM 57.2 °F 50.0 °F 77% 30.36 in 5.6 mi North 13.8 mph 25.3 mph N/A   Scattered Clouds
10:30 AM 57.2 °F 50.0 °F 77% 30.36 in 6.2 mi NNW 13.8 mph - N/A   Mostly Cloudy
11:00 AM 59.0 °F 50.0 °F 72% 30.36 in 6.2 mi North 15.0 mph - N/A   Scattered Clouds
11:30 AM 59.0 °F 50.0 °F 72% 30.36 in 6.2 mi NNW 17.3 mph - N/A   Scattered Clouds
12:00 PM 60.8 °F 50.0 °F 68% 30.36 in 6.2 mi North 16.1 mph - N/A   Mostly Cloudy
12:30 PM 60.8 °F 48.2 °F 63% 30.39 in 6.2 mi NNE 12.7 mph - N/A   Mostly Cloudy
1:00 PM 62.6 °F 48.2 °F 59% 30.39 in 6.2 mi North 15.0 mph 26.5 mph N/A   Scattered Clouds
1:30 PM 64.4 °F 48.2 °F 56% 30.39 in 6.2 mi North 13.8 mph - N/A   Scattered Clouds
2:00 PM 64.4 °F 48.2 °F 56% 30.36 in 6.2 mi North 16.1 mph - N/A   Scattered Clouds
2:30 PM 64.4 °F 48.2 °F 56% 30.36 in 6.2 mi North 21.9 mph - N/A   Scattered Clouds
3:00 PM 64.4 °F 48.2 °F 56% 30.33 in 6.2 mi North 20.7 mph - N/A   Scattered Clouds
3:30 PM 66.2 °F 48.2 °F 52% 30.33 in 6.2 mi North 21.9 mph - N/A   Scattered Clouds
4:00 PM 64.4 °F 48.2 °F 56% 30.33 in 6.2 mi North 18.4 mph - N/A   Scattered Clouds
4:30 PM 64.4 °F 48.2 °F 56% 30.33 in 6.2 mi NNW 20.7 mph - N/A   Scattered Clouds
5:00 PM 64.4 °F 50.0 °F 59% 30.33 in 6.2 mi North 15.0 mph - N/A   Scattered Clouds
5:30 PM 62.6 °F 50.0 °F 63% 30.33 in 6.2 mi North 13.8 mph - N/A   Scattered Clouds
6:00 PM 62.6 °F 48.2 °F 59% 30.33 in 6.2 mi North 15.0 mph - N/A   Scattered Clouds
6:30 PM 62.6 °F 48.2 °F 59% 30.33 in 6.2 mi North 12.7 mph - N/A   Partly Cloudy
7:00 PM 60.8 °F 48.2 °F 63% 30.33 in 6.2 mi North 13.8 mph - N/A   Partly Cloudy
7:30 PM 60.8 °F 48.2 °F 63% 30.36 in 6.2 mi North 9.2 mph - N/A   Partly Cloudy
8:00 PM 59.0 °F 50.0 °F 72% 30.36 in 6.2 mi North 9.2 mph - N/A   Partly Cloudy
8:30 PM 57.2 °F 50.0 °F 77% 30.36 in 6.2 mi NNW 9.2 mph - N/A   Partly Cloudy
9:30 PM 57.2 °F 50.0 °F 77% 30.36 in 6.2 mi NW 10.4 mph - N/A   Partly Cloudy
10:00 PM 57.2 °F 50.0 °F 77% 30.36 in 6.2 mi NW 11.5 mph - N/A   Partly Cloudy
10:30 PM 57.2 °F 50.0 °F 77% 30.39 in 6.2 mi NW 10.4 mph - N/A   Partly Cloudy
11:00 PM 57.2 °F 50.0 °F 77% 30.36 in 6.2 mi NNW 10.4 mph - N/A   Partly Cloudy
11:30 PM 55.4 °F 50.0 °F 82% 30.36 in 6.2 mi NW 5.8 mph - N/A   Partly Cloudy